Terug naar catalogus

ATLAS F DEB

ActiefLEO
NORAD 29197·DEBRIS·🇺🇸 United States

Gelanceerd May 13, 1978 vanaf Vandenberg Space Force Base

Loading…

Volgende Passages (komende 24 uur)

TLE

VersSource: Space-Track

Epoch: Sep 14, 2026, 21:58 UTC

1 29197U 78047C   26257.91538698  .00393850  00000-0  86456-1 0  9993
2 29197  63.6326 221.7704 0909304 357.6977  29.9017 13.22909146770344

Volg ATLAS F DEB in realtime met AllMySat

Download on the App Store